This is the latest recevied weather packets stored in our database for station/object DL9GRB-13. If no packets are shown the sender has not sent any weather packets the latest 10 day(s).
| Time | Temp. | Humidity | Pressure | Rain* | Wind** | Luminosity | Snow |
|---|---|---|---|---|---|---|---|
| 1777968428 | 9.44° C | 94% | 1010.3 hPa | 0.51 mm | - | 106 W/m² | - |
| 1777968248 | 9.44° C | 94% | 1010.3 hPa | 0.51 mm | - | 99 W/m² | - |
| 1777968068 | 9.44° C | 94% | 1010.2 hPa | 0.51 mm | - | 97 W/m² | - |
| 1777967888 | 9.44° C | 94% | 1010.3 hPa | 0 mm | - | 96 W/m² | - |
| 1777967708 | 9.44° C | 94% | 1010.1 hPa | 0.51 mm | - | 104 W/m² | - |
| 1777967528 | 9.44° C | 95% | 1010.3 hPa | 0.51 mm | - | 101 W/m² | - |
| 1777967348 | 9.44° C | 95% | 1010.2 hPa | 0.51 mm | - | 106 W/m² | - |
| 1777967168 | 9.44° C | 95% | 1010.3 hPa | 0.51 mm | - | 101 W/m² | - |
| 1777966988 | 9.44° C | 95% | 1010.2 hPa | 0.51 mm | - | 76 W/m² | - |
| 1777966808 | 9.44° C | 95% | 1010.3 hPa | 0.51 mm | - | 78 W/m² | - |
| 1777966628 | 9.44° C | 95% | 1010.5 hPa | 0 mm | - | 76 W/m² | - |
| 1777966448 | 9.44° C | 95% | 1010.4 hPa | 0 mm | - | 88 W/m² | - |
| 1777966268 | 9.44° C | 95% | 1010.3 hPa | 0.51 mm | - | 90 W/m² | - |
| 1777966088 | 9.44° C | 95% | 1010.3 hPa | 0.51 mm | - | 73 W/m² | - |
| 1777965908 | 9.44° C | 95% | 1010.2 hPa | 0.51 mm | - | 39 W/m² | - |
| 1777965728 | 9.44° C | 95% | 1010.5 hPa | 0.51 mm | - | 42 W/m² | - |
| 1777965548 | 9.44° C | 95% | 1010.4 hPa | 0.51 mm | - | 43 W/m² | - |
| 1777965368 | 9.44° C | 95% | 1010.5 hPa | 1.27 mm | - | 51 W/m² | - |
| 1777965188 | 9.44° C | 95% | 1010.3 hPa | 0.51 mm | - | 55 W/m² | - |
| 1777965008 | 9.44° C | 95% | 1010.3 hPa | 1.27 mm | - | 64 W/m² | - |
| 1777964828 | 9.44° C | 95% | 1010.4 hPa | 0.51 mm | - | 50 W/m² | - |
| 1777964648 | 9.44° C | 95% | 1010.5 hPa | 0.51 mm | - | 59 W/m² | - |
| 1777964468 | 9.44° C | 95% | 1010.3 hPa | 0 mm | - | 69 W/m² | - |
| 1777964288 | 9.44° C | 95% | 1010.5 hPa | 0 mm | - | 72 W/m² | - |
| 1777964108 | 9.44° C | 95% | 1010.3 hPa | 0.51 mm | - | 63 W/m² | - |
* Rain latest hour (hover to see other rain measurements)
** Current wind speed in m/s (hover to see current wind gust speed)